Lexington Weather

Lexington, Massachusetts, USA

34°F
4/16/2021 10:21am 
  • Lexington Conditions: Snow, Fog, Overcast
  • Temperature: 34.0°F / 1.1°CColder 0.2°F than last hour.
  • Dew Point: 32.7°FDecreased 0.2°Fsince last hour.
  • Relative Humidity: 95
  • Wind: Calm, 10-min avg: Calm, gust: None
  • Barometer: 29.49 in Steady
  • Visibility: ½ mile
  • Snow Today: 1.3 in
  •   

Regional Weather Roundup
for Boston / Norton, MA

        
000
ASUS41 KBOX 111204
RWRBOX

REGIONAL WEATHER ROUNDUP
NATIONAL WEATHER SERVICE BOSTON/NORTON MA
800 AM EDT SUN APR 11 2021

NOTE:  "FAIR" INDICATES FEW OR NO CLOUDS BELOW 12,000 FEET WITH NO 
SIGNIFICANT WEATHER AND/OR OBSTRUCTIONS TO VISIBILITY.

MAZALL-111300-
EASTERN MASSACHUSETTS
  
CITY           SKY/WX    TMP DP  RH WIND       PRES   REMARKS
BOSTON         CLOUDY    47  42  83 N16       29.79R                  
6HR MIN TEMP:  47; 6HR MAX TEMP:  60;                                

BEVERLY        NOT AVBL                                               
LAWRENCE       CLOUDY    46  41  82 NE9       29.80S                  
BEDFORD        CLOUDY    47  44  90 NE12      29.77S                  
BLUE HILL        N/A     44  43  96 NE17G23   29.74F                  
NORWOOD        CLOUDY    49  44  83 NE10      29.77S                  
MARSHFIELD     FOG       46  46 100 N12G20    29.77R VSB 1/4          
PLYMOUTH       CLOUDY    47  45  93 N13G21    29.74S FOG              
TAUNTON        CLOUDY    48  46  93 N5        29.75R                  
NEW BEDFORD    CLOUDY    54  53  97 N5        29.73R FOG              
$$

MAZALL-111300-
CAPE COD AND THE ISLANDS
  
CITY           SKY/WX    TMP DP  RH WIND       PRES   REMARKS
FALMOUTH       CLOUDY    46  46 100 NE6       29.73F FOG              
HYANNIS        FOG       47  45  93 N13G20    29.71F VSB 1/2          
CHATHAM        FOG       45  44  97 VRB7      29.73S VSB 1/2          
PROVINCETOWN   LGT RAIN  45  45 100 N10       29.75  VSB 1/2          
NANTUCKET      FOG       51  51 100 NW9       29.73S VSB 1/4          
MARTHAS VNYRD  CLOUDY    53  53 100 NW3       29.73S FOG              
$$
 
MAZALL-111300-
CENTRAL AND WESTERN MASSACHUSETTS
  
CITY           SKY/WX    TMP DP  RH WIND       PRES   REMARKS
WORCESTER      FOG       49  47  93 NE8       29.74S VSB 1/4          
6HR MIN TEMP:  49; 6HR MAX TEMP:  56;                                

FITCHBURG      CLOUDY    49  47  93 N7        29.77S                  
ORANGE         CLOUDY    54  51  90 E6        29.74S                  
SPRINGFIELD    CLOUDY    53  53 100 NE6       29.70S FOG              
WESTFIELD      CLOUDY    53  52  96 NE3       29.71R FOG              
NORTH ADAMS    PTSUNNY   53  49  86 CALM      29.70R                  
PITTSFIELD     PTSUNNY   51  50  96 NE6       29.69R                  
$$
 
RIZALL-111300-
RHODE ISLAND
  
CITY           SKY/WX    TMP DP  RH WIND       PRES   REMARKS
PROVIDENCE     FOG       54  53  97 NE6       29.74R VSB 3/4          
6HR MIN TEMP:  53; 6HR MAX TEMP:  56;                                

NEWPORT        FOG       53  52  96 NE5       29.72S VSB 1/2          
BLOCK ISLAND   FOG       52  51  97 NE3       29.73S VSB 1/4          
SMITHFIELD     CLOUDY    49  49 100 NE13      29.75R FOG              
WESTERLY       FOG       51  51 100 NE5       29.72R VSB 1/4          
$$
 
CTZALL-111300-
CONNECTICUT
  
CITY           SKY/WX    TMP DP  RH WIND       PRES   REMARKS
BRADLEY INTL   FOG       52  51  97 CALM      29.71R VSB 1/8          
6HR MIN TEMP:  51; 6HR MAX TEMP:  54;                                

HARTFORD       FOG       54  53  97 CALM      29.70S VSB 1/4          
BRIDGEPORT     FOG       51  50  96 E6        29.69S VSB 1/4          
DANBURY        FOG       54  52  93 SE3       29.70S VSB 1/2          
GROTON         FOG       53  53 100 CALM      29.70F VSB 1/4          
NEW HAVEN      FOG       54  53  97 CALM      29.70R VSB 1/4          
CHESTER        FOG       54  54 100 CALM      29.71R VSB<1/4          
MERIDEN        FOG       53  52  96 CALM      29.70S VSB 1/4          
WILLIMANTIC    CLOUDY    52  51  97 N5        29.72S FOG              
OXFORD         FOG       51  51 100 E3        29.70S VSB 1/4          
$$

MEZ002-015-021-024-NHZ003-005-008-011-012-014-VTZ005-008-111300-
NORTHERN NEW ENGLAND
  
CITY           SKY/WX    TMP DP  RH WIND       PRES   REMARKS
PORTLAND ME    CLOUDY    43  40  89 NE12      29.83R                  
6HR MIN TEMP:  41; 6HR MAX TEMP:  47;                                

BANGOR ME      CLOUDY    40  35  83 NE10      29.86R                  
CONCORD NH     MOSUNNY   49  39  68 NE8       29.79S                  
MANCHESTER NH  CLOUDY    50  39  66 NE7       29.78R                  
NASHUA NH      CLOUDY    49  45  86 E9        29.80R                  
PORTSMOUTH NH  PTSUNNY   47  37  68 NE6       29.80S                  
JAFFREY NH     CLOUDY    50  47  89 VRB3      29.75F                  
KEENE NH       CLOUDY    52  48  86 NE9       29.74S                  
BURLINGTON VT  PTSUNNY   50  41  71 N7        29.70F                  
MT. WASHINGTON NOT AVBL                                               
$$

NYZ052-076-111300-
EASTERN NEW YORK
  
CITY           SKY/WX    TMP DP  RH WIND       PRES   REMARKS
ALBANY         PTSUNNY   56  53  90 CALM      29.67F                  
6HR MIN TEMP:  51; 6HR MAX TEMP:  59;                                

NEW YORK CITY  FOG       53  52  96 NE6       29.68S VSB 1/4          
6HR MIN TEMP:  52; 6HR MAX TEMP:  56;                                

$$
 
ANZALL-111300-
MARINE OBSERVATIONS
  
STATION/POSITION TIME  TEMP    WIND        PRES    VSBY  WAVE
                       AIR SEA DIR/SP/G                  HT/PER
                 (UTC) (F)     (DEG/KT/KT) (MB)    (MI)  (FT/S)
BOSTON BUOY      1140   44 45   10/ 16/ 19 1008.8R
BUZZARDS BAY     1100          340/  4/  5 1007.8R
NANTUCKET SOUND  1140      46                N/A
MASS BAY-STELLWA 1104                        N/A           3/ 5
ISLE OF SHOALS   1100   43      30/ 22/ 25 1008.0R
S OF BLOCK IS    1126      46                N/A           3/11
$$

......................KEY.........................
  SKY/WX - SKY CONDITION/PRESENT WEATHER
  TMP    - TEMPERATURE IN FAHRENHEIT
  DWPT   - DEWPOINT IN FAHRENHEIT
  RH     - RELATIVE HUMIDITY IN PERCENT
  WIND   - DIRECTION AND SPEED IN MPH
  PRES   - MEAN SEA LEVEL PRESSURE IN INCHES OF HG
  WCI    - WIND CHILL INDEX
  VSB    - VISIBILITY IN MILES
  HX     - HEAT INDEX
  TC     - TEMPERATURE IN CELSIUS
  VRB    - VARIABLE WIND DIRECTION
  N/A    - NOT AVAILABLE
  
      

Other recent Regional Weather Roundups

Fri Apr 16, 10:05am

Fri Apr 16, 9:04am

Fri Apr 16, 8:04am

Fri Apr 16, 7:04am

Fri Apr 16, 6:04am

Fri Apr 16, 5:04am

Fri Apr 16, 4:04am

Fri Apr 16, 3:04am

Fri Apr 16, 2:04am

Fri Apr 16, 1:04am

Fri Apr 16, 12:04am

Thu Apr 15, 11:05pm

Thu Apr 15, 10:04pm

Thu Apr 15, 9:04pm

Thu Apr 15, 8:04pm

Thu Apr 15, 7:05pm

Thu Apr 15, 6:04pm

Thu Apr 15, 5:05pm

Thu Apr 15, 4:04pm

Thu Apr 15, 3:05pm

Thu Apr 15, 2:04pm

Thu Apr 15, 1:05pm

Thu Apr 15, 12:04pm

Thu Apr 15, 11:04am

Thu Apr 15, 10:05am

Thu Apr 15, 9:04am

Thu Apr 15, 8:04am

Thu Apr 15, 7:04am

Thu Apr 15, 6:04am

Thu Apr 15, 5:04am

Thu Apr 15, 4:04am

Thu Apr 15, 3:04am

Thu Apr 15, 2:04am

Thu Apr 15, 1:04am

Thu Apr 15, 12:04am

Wed Apr 14, 11:04pm

Wed Apr 14, 10:04pm

Wed Apr 14, 9:04pm

Wed Apr 14, 8:04pm

Wed Apr 14, 7:04pm

Wed Apr 14, 6:04pm

Wed Apr 14, 5:05pm

Wed Apr 14, 4:04pm

Wed Apr 14, 3:05pm

Wed Apr 14, 2:04pm

Wed Apr 14, 1:05pm

Wed Apr 14, 12:04pm

Wed Apr 14, 11:04am

Wed Apr 14, 10:04am

Wed Apr 14, 9:04am

Wed Apr 14, 8:04am

Wed Apr 14, 7:04am

Wed Apr 14, 6:04am

Wed Apr 14, 5:04am

Wed Apr 14, 4:04am

Wed Apr 14, 3:04am

Wed Apr 14, 2:04am

Wed Apr 14, 1:04am

Wed Apr 14, 12:04am

Tue Apr 13, 11:04pm

Tue Apr 13, 10:05pm

Tue Apr 13, 9:05pm

Tue Apr 13, 8:05pm

Tue Apr 13, 7:04pm

Tue Apr 13, 6:04pm

Tue Apr 13, 5:05pm

Tue Apr 13, 4:04pm

Tue Apr 13, 3:04pm

Tue Apr 13, 2:05pm

Tue Apr 13, 1:04pm

Tue Apr 13, 12:05pm

Tue Apr 13, 11:05am

Tue Apr 13, 10:04am

Tue Apr 13, 9:04am

Tue Apr 13, 8:04am

Tue Apr 13, 7:04am

Tue Apr 13, 6:04am

Tue Apr 13, 5:04am

Tue Apr 13, 4:04am

Tue Apr 13, 3:04am

Tue Apr 13, 2:04am

Tue Apr 13, 1:04am

Tue Apr 13, 12:05am

Mon Apr 12, 11:04pm

Mon Apr 12, 10:04pm

Mon Apr 12, 9:04pm

Mon Apr 12, 8:04pm

Mon Apr 12, 7:05pm

Mon Apr 12, 6:04pm

Mon Apr 12, 5:04pm

Mon Apr 12, 4:04pm

Mon Apr 12, 3:05pm

Mon Apr 12, 2:04pm

Mon Apr 12, 1:05pm

Mon Apr 12, 12:04pm

Mon Apr 12, 11:04am

Mon Apr 12, 10:04am

Mon Apr 12, 9:04am

Mon Apr 12, 8:04am

Mon Apr 12, 7:04am

Mon Apr 12, 6:04am

Mon Apr 12, 5:04am

Mon Apr 12, 4:04am

Mon Apr 12, 3:04am

Mon Apr 12, 2:04am

Mon Apr 12, 1:05am

Mon Apr 12, 12:04am

Sun Apr 11, 11:04pm

Sun Apr 11, 10:04pm

Sun Apr 11, 9:04pm

Sun Apr 11, 8:04pm

Sun Apr 11, 7:04pm

Sun Apr 11, 6:05pm

Sun Apr 11, 5:05pm

Sun Apr 11, 4:04pm

Sun Apr 11, 3:05pm

Sun Apr 11, 2:05pm

Sun Apr 11, 1:05pm

Sun Apr 11, 12:04pm

Sun Apr 11, 11:05am

Sun Apr 11, 10:05am

Sun Apr 11, 9:04am

Sun Apr 11, 7:04am

Sun Apr 11, 6:04am

Sun Apr 11, 5:04am

Sun Apr 11, 4:04am

Sun Apr 11, 3:04am

Sun Apr 11, 2:04am

Sun Apr 11, 1:05am

Sun Apr 11, 12:04am

Sat Apr 10, 11:05pm

Sat Apr 10, 10:04pm

Sat Apr 10, 9:04pm

Sat Apr 10, 8:04pm

Sat Apr 10, 7:05pm

Sat Apr 10, 6:04pm

Sat Apr 10, 5:04pm

Sat Apr 10, 4:04pm

Sat Apr 10, 3:04pm

Sat Apr 10, 2:05pm

Sat Apr 10, 1:04pm

Sat Apr 10, 12:04pm

Sat Apr 10, 11:04am

Sat Apr 10, 10:04am

Sat Apr 10, 9:04am

Sat Apr 10, 8:04am

Sat Apr 10, 7:04am

Sat Apr 10, 6:04am

Sat Apr 10, 5:04am

Sat Apr 10, 4:04am

Sat Apr 10, 3:04am

Sat Apr 10, 2:04am

Sat Apr 10, 1:05am

Sat Apr 10, 12:04am

Fri Apr 9, 11:04pm

Fri Apr 9, 10:05pm

Fri Apr 9, 9:04pm

Fri Apr 9, 8:05pm

Fri Apr 9, 7:05pm

Fri Apr 9, 6:04pm

Fri Apr 9, 5:04pm

Fri Apr 9, 4:05pm

Fri Apr 9, 3:05pm

Fri Apr 9, 2:04pm

Fri Apr 9, 1:04pm

Fri Apr 9, 12:04pm

Fri Apr 9, 11:05am

Meta data:

ID: a8de2e30-8615-49ad-83ad-7ae8d4d4e1eb
Link: https://api.weather.gov/products/a8de2e30-8615-49ad-83ad-7ae8d4d4e1eb